CW4438 Weather Reports


Display with metric or nautical units.
time (UTC)temp
F
wind
direction
speed
MPH
gust
MPH
rain 1hr
in
rain 24hr
in
rain mn
in
humidity
%
barometer
mb
20260508170630 74 221 2.0 5.0 0.00 0.00 0.00 50 1012.4
20260508170129 74 215 2.0 4.0 0.00 0.00 0.00 53 1012.5
20260508165630 74 241 2.0 8.0 0.00 0.00 0.00 55 1012.6
20260508165129 73 190 2.0 8.0 0.00 0.00 0.00 58 1012.7
20260508164629 73 183 3.0 9.0 0.00 0.00 0.00 58 1012.9
20260508164129 73 171 3.0 9.0 0.00 0.00 0.00 54 1012.9
20260508163620 73 190 3.0 8.0 0.00 0.00 0.00 55 1013.0
20260508162116 72 214 3.0 7.0 0.00 0.00 0.00 57 1013.1
20260508160613 72 213 2.0 10.0 0.00 0.00 0.00 63 1013.2
20260508160113 71 69 3.0 8.0 0.00 0.00 0.00 62 1013.4
20260508155114 71 205 3.0 6.0 0.00 0.00 0.00 60 1013.4
20260508154608 70 228 3.0 7.0 0.00 0.00 0.00 61 1013.6
20260508154108 70 211 3.0 8.0 0.00 0.00 0.00 60 1013.6
20260508153105 69 211 3.0 9.0 0.00 0.00 0.00 63 1013.8
20260508152606 69 217 3.0 8.0 0.00 0.00 0.00 63 1013.8
20260508152104 69 223 3.0 8.0 0.00 0.00 0.00 64 1013.9
20260508151604 68 148 3.0 8.0 0.00 0.00 0.00 64 1014.0
20260508151102 68 256 4.0 8.0 0.00 0.00 0.00 65 1014.0
20260508150601 67 191 3.0 8.0 0.00 0.00 0.00 66 1014.0
20260508145602 67 191 3.0 9.0 0.00 0.00 0.00 65 1014.1
20260508145103 66 228 4.0 9.0 0.00 0.00 0.00 68 1014.1
20260508144602 66 215 4.0 8.0 0.00 0.00 0.00 67 1014.2
20260508144103 66 244 3.0 10.0 0.00 0.00 0.00 67 1014.3
20260508143601 65 233 3.0 10.0 0.00 0.00 0.00 68 1014.2
20260508142601 65 183 3.0 7.0 0.00 0.00 0.00 71 1014.2
20260508142102 64 169 2.0 5.0 0.00 0.00 0.00 72 1014.1
20260508141101 63 211 2.0 8.0 0.00 0.00 0.00 75 1014.1
20260508140601 62 248 3.0 8.0 0.00 0.00 0.00 75 1014.1
20260508135601 61 191 3.0 9.0 0.00 0.00 0.00 77 1014.1
20260508135101 60 225 3.0 9.0 0.00 0.00 0.00 77 1014.2
20260508134600 60 241 3.0 7.0 0.00 0.00 0.00 77 1014.2
20260508134101 59 205 3.0 6.0 0.00 0.00 0.00 80 1014.2
20260508133601 58 181 3.0 7.0 0.00 0.00 0.00 81 1014.3
20260508132601 57 150 3.0 5.0 0.00 0.00 0.00 82 1014.3
20260508132102 56 321 3.0 8.0 0.00 0.00 0.00 84 1014.4
20260508131602 55 209 3.0 8.0 0.00 0.00 0.00 85 1014.4
20260508131101 54 99 3.0 6.0 0.00 0.00 0.00 87 1014.4
20260508130601 53 233 3.0 7.0 0.00 0.00 0.00 88 1014.4
20260508125601 52 175 2.0 6.0 0.00 0.00 0.00 90 1060.1
20260508125101 51 188 2.0 6.0 0.00 0.00 0.00 91 1014.2
20260508124602 50 181 1.0 5.0 0.00 0.00 0.00 92 1014.2
20260508124101 50 196 1.0 5.0 0.00 0.00 0.00 92 1014.2
20260508123102 49 198 0.0 5.0 0.00 0.00 0.00 92 1014.3
20260508122601 48 121 0.0 3.0 0.00 0.00 0.00 92 1014.3
20260508122101 48 200 0.0 3.0 0.00 0.00 0.00 92 1014.3
20260508121601 47 148 0.0 2.0 0.00 0.00 0.00 91 1014.3
20260508120558 47 105 0.0 1.0 0.00 0.00 0.00 91 1014.2
20260508120055 47 117 0.0 2.0 0.00 0.00 0.00 91 1014.2
20260508115055 46 121 0.0 1.0 0.00 0.00 0.00 91 1014.2
20260508114549 46 121 0.0 2.0 0.00 0.00 0.00 91 1014.2
20260508114043 46 124 0.0 2.0 0.00 0.00 0.00 91 1014.2
20260508113531 46 148 0.0 0.0 0.00 0.00 0.00 91 1014.1
20260508113027 46 148 0.0 0.0 0.00 0.00 0.00 91 1014.0
20260508112525 46 148 0.0 0.0 0.00 0.00 0.00 91 1014.0
20260508111522 46 148 0.0 0.0 0.00 0.00 0.00 90 1013.9
20260508111020 46 148 0.0 0.0 0.00 0.00 0.00 90 1013.9
20260508105513 47 148 0.0 0.0 0.00 0.00 0.00 90 1013.6
20260508105011 47 148 0.0 0.0 0.00 0.00 0.00 90 1013.6
20260508104510 47 148 0.0 0.0 0.00 0.00 0.00 90 1013.6
20260508104007 47 148 0.0 0.0 0.00 0.00 0.00 90 1013.5
20260508103505 47 148 0.0 0.0 0.00 0.00 0.00 90 1013.4
20260508103006 47 148 0.0 0.0 0.00 0.00 0.00 90 1013.4
20260508102003 47 148 0.0 0.0 0.00 0.00 0.00 89 1013.4
20260508101502 47 148 0.0 1.0 0.00 0.00 0.00 89 1013.3
20260508100503 47 148 0.0 1.0 0.00 0.00 0.00 89 1013.2
20260508100002 47 148 0.0 1.0 0.00 0.00 0.00 89 1013.2
20260508095458 47 148 0.0 1.0 0.00 0.00 0.00 89 1013.2
20260508094953 47 148 0.0 1.0 0.00 0.00 0.00 89 1013.2
20260508094447 47 148 0.0 1.0 0.00 0.00 0.00 89 1013.1
20260508093939 48 148 0.0 1.0 0.00 0.00 0.00 88 1013.2
20260508093434 48 148 0.0 1.0 0.00 0.00 0.00 89 1013.2
20260508092432 48 148 0.0 1.0 0.00 0.00 0.00 89 1013.2
20260508091931 48 148 0.0 1.0 0.00 0.00 0.00 88 1013.2
20260508091431 48 148 0.0 1.0 0.00 0.00 0.00 88 1013.2
20260508090929 48 148 0.0 1.0 0.00 0.00 0.00 88 1013.2
20260508090429 48 148 0.0 1.0 0.00 0.00 0.00 88 1013.1
20260508085929 48 148 0.0 1.0 0.00 0.00 0.00 88 1013.1
20260508085429 48 148 0.0 1.0 0.00 0.00 0.00 87 1013.1
20260508084429 48 148 0.0 2.0 0.00 0.00 0.00 88 1013.2
20260508083929 48 148 0.0 1.0 0.00 0.00 0.00 87 1013.2
20260508083429 48 148 0.0 1.0 0.00 0.00 0.00 87 1013.2
20260508082929 48 148 0.0 1.0 0.00 0.00 0.00 87 1013.2
20260508081929 49 147 0.0 1.0 0.00 0.00 0.00 86 1013.3
20260508081430 49 147 0.0 1.0 0.00 0.00 0.00 86 1013.4
20260508080429 49 147 0.0 2.0 0.00 0.00 0.00 86 1013.8
20260508075929 49 148 0.0 1.0 0.00 0.00 0.00 86 1013.8
20260508075429 49 148 0.0 1.0 0.00 0.00 0.00 85 1013.8
20260508074429 50 148 0.0 1.0 0.00 0.00 0.00 85 1013.9
20260508073413 50 148 0.0 2.0 0.00 0.00 0.00 84 1013.9
20260508072911 50 149 0.0 1.0 0.00 0.00 0.00 84 1013.9
20260508072411 50 149 0.0 1.0 0.00 0.00 0.00 84 1013.9
20260508071909 50 149 0.0 1.0 0.00 0.00 0.00 84 1013.9
20260508071408 50 149 0.0 1.0 0.00 0.00 0.00 84 1014.0
20260508070403 50 149 0.0 1.0 0.00 0.00 0.00 84 1014.1
20260508065903 50 149 0.0 1.0 0.00 0.00 0.00 83 1014.1
20260508065403 50 149 0.0 1.0 0.00 0.00 0.00 83 1014.1
20260508064903 50 149 0.0 1.0 0.00 0.00 0.00 83 1014.2
20260508064403 50 201 0.0 1.0 0.00 0.00 0.00 84 1014.3
20260508063902 50 201 0.0 1.0 0.00 0.00 0.00 84 1014.3
20260508063403 50 201 0.0 1.0 0.00 0.00 0.00 84 1014.4
20260508062903 50 201 0.0 1.0 0.00 0.00 0.00 84 1014.5
20260508062401 50 201 0.0 1.0 0.00 0.00 0.00 84 1014.5
20260508061900 50 201 0.0 1.0 0.00 0.00 0.00 84 1014.6
20260508060844 50 201 0.0 1.0 0.00 0.00 0.00 84 1014.6
20260508060338 50 201 0.0 0.0 0.00 0.00 0.00 84 1014.6
20260508055338 50 201 0.0 1.0 0.00 0.00 0.00 84 1014.7
20260508054336 50 201 0.0 1.0 0.00 0.00 0.00 84 1014.7
20260508053833 50 201 0.0 1.0 0.00 0.00 0.00 84 1014.7
20260508053334 50 201 0.0 1.0 0.00 0.00 0.00 84 1014.7
20260508052834 50 211 0.0 1.0 0.00 0.00 0.00 84 1014.8
20260508052335 50 211 0.0 1.0 0.00 0.00 0.00 84 1014.8
20260508051834 50 211 0.0 1.0 0.00 0.00 0.00 84 1014.9
20260508051332 50 211 0.0 1.0 0.00 0.00 0.00 84 1014.8
20260508050332 50 211 0.0 1.0 0.00 0.00 0.00 84 1014.9
20260508045831 50 211 0.0 1.0 0.00 0.00 0.00 83 1014.9
20260508045332 50 211 0.0 1.0 0.00 0.00 0.00 83 1014.9
20260508044832 50 211 0.0 1.0 0.00 0.00 0.00 83 1014.9
20260508044331 51 211 0.0 1.0 0.00 0.00 0.00 83 1015.0
20260508043831 51 211 0.0 1.0 0.00 0.00 0.00 82 1015.0
20260508042832 51 211 0.0 0.0 0.00 0.00 0.00 82 1015.0
20260508042331 51 211 0.0 1.0 0.00 0.00 0.00 82 1015.0
20260508041831 51 211 0.0 1.0 0.00 0.00 0.00 82 1015.2
20260508041332 51 211 0.0 1.0 0.00 0.00 0.00 82 1015.2
20260508040830 51 211 0.0 1.0 0.00 0.00 0.00 82 1015.3
20260508040331 51 211 0.0 1.0 0.00 0.00 0.00 81 1015.4
20260508035831 51 211 0.0 1.0 0.00 0.00 0.00 81 1015.4
20260508035331 52 211 0.0 1.0 0.00 0.00 0.00 80 1015.4
20260508034831 52 211 0.0 0.0 0.00 0.00 0.00 78 1015.3
20260508034331 52 211 0.0 0.0 0.00 0.00 0.00 78 1015.3
20260508033831 52 211 0.0 0.0 0.00 0.00 0.00 78 1015.3
20260508033332 53 211 0.0 1.0 0.00 0.00 0.00 78 1015.3
20260508032831 53 211 0.0 1.0 0.00 0.00 0.00 79 1015.3
20260508032331 53 211 0.0 0.0 0.00 0.00 0.00 77 1015.2
20260508031831 53 211 0.0 0.0 0.00 0.00 0.00 76 1015.3
20260508030833 53 211 0.0 0.0 0.00 0.00 0.00 74 1015.2
20260508030331 54 211 0.0 0.0 0.00 0.00 0.00 73 1015.2
20260508025831 54 211 0.0 1.0 0.00 0.00 0.00 73 1015.2
20260508025331 54 211 0.0 1.0 0.00 0.00 0.00 73 1015.2
20260508024831 55 211 0.0 0.0 0.00 0.00 0.00 72 1015.1
20260508024334 55 211 0.0 1.0 0.00 0.00 0.00 71 1015.1
20260508023828 55 211 0.0 1.0 0.00 0.00 0.00 71 1015.0
20260508023323 56 211 0.0 0.0 0.00 0.00 0.00 69 1015.1
20260508022817 56 211 0.0 0.0 0.00 0.00 0.00 69 1015.0
20260508022307 56 211 0.0 0.0 0.00 0.00 0.00 67 1015.0
20260508021813 56 211 0.0 0.0 0.00 0.00 0.00 67 1015.0
20260508021304 57 211 0.0 0.0 0.00 0.00 0.00 66 1014.9
20260508020803 57 211 0.0 0.0 0.00 0.00 0.00 65 1014.8
20260508020303 58 211 0.0 0.0 0.00 0.00 0.00 66 1014.7
20260508015804 58 211 0.0 0.0 0.00 0.00 0.00 64 1014.8
20260508014804 59 211 0.0 0.0 0.00 0.00 0.00 63 1014.5
20260508014303 59 211 0.0 0.0 0.00 0.00 0.00 62 1014.4
20260508013804 60 211 0.0 1.0 0.00 0.00 0.00 61 1014.4
20260508013303 60 211 0.0 1.0 0.00 0.00 0.00 61 1014.2
20260508012804 61 211 0.0 0.0 0.00 0.00 0.00 60 1014.2
20260508012307 61 211 0.0 0.0 0.00 0.00 0.00 59 1014.2
20260508011804 62 211 0.0 1.0 0.00 0.00 0.00 57 1014.1
20260508011303 62 211 0.0 3.0 0.00 0.00 0.00 54 1014.1
20260508010303 62 200 1.0 3.0 0.00 0.00 0.00 54 1014.0
20260508005305 63 237 1.0 4.0 0.00 0.00 0.00 53 1013.9
20260508004803 63 206 1.0 3.0 0.00 0.00 0.00 53 1014.0
20260508002804 64 229 1.0 4.0 0.00 0.00 0.00 51 1014.1
20260508002306 64 186 2.0 6.0 0.00 0.00 0.00 50 1014.1
20260508001803 65 171 1.0 6.0 0.00 0.00 0.00 51 1014.0
20260508001303 65 208 2.0 5.0 0.00 0.00 0.00 51 1014.1
20260508000305 65 209 2.0 5.0 0.00 0.00 0.00 48 1014.2
20260507235803 65 175 2.0 6.0 0.00 0.00 0.00 47 1014.2
20260507235306 65 201 2.0 6.0 0.00 0.00 0.00 50 1014.2
20260507234803 66 234 1.0 6.0 0.00 0.00 0.00 49 1014.2
20260507233803 66 151 2.0 8.0 0.00 0.00 0.00 50 1014.1
20260507233303 66 232 2.0 8.0 0.00 0.00 0.00 46 1014.2
20260507232803 66 170 2.0 5.0 0.00 0.00 0.00 48 1014.2
20260507232306 67 162 1.0 5.0 0.00 0.00 0.00 46 1014.3
20260507231804 67 194 1.0 3.0 0.00 0.00 0.00 47 1014.3
20260507231303 67 119 1.0 4.0 0.00 0.00 0.00 48 1014.3
20260507230804 67 197 2.0 6.0 0.00 0.00 0.00 48 1014.3
20260507230303 67 167 2.0 6.0 0.00 0.00 0.00 46 1014.3
20260507225803 67 279 1.0 4.0 0.00 0.00 0.00 46 1014.4
20260507225305 67 228 2.0 4.0 0.00 0.00 0.00 45 1014.4
20260507223804 68 200 2.0 5.0 0.00 0.00 0.00 44 1014.6
20260507223303 68 294 2.0 6.0 0.00 0.00 0.00 44 1014.7
20260507222802 69 228 2.0 6.0 0.00 0.00 0.00 43 1014.7
20260507222305 69 182 2.0 5.0 0.00 0.00 0.00 45 1014.7
20260507221803 69 229 2.0 5.0 0.00 0.00 0.00 44 1014.7
20260507221303 70 279 2.0 5.0 0.00 0.00 0.00 41 1014.8
20260507220303 70 219 1.0 4.0 0.00 0.00 0.00 47 1014.7
20260507215803 70 351 1.0 4.0 0.00 0.00 0.00 41 1014.8
20260507214803 70 248 3.0 7.0 0.00 0.00 0.00 41 1014.8
20260507214303 70 230 3.0 7.0 0.00 0.00 0.00 48 1014.7
20260507213803 70 254 2.0 7.0 0.00 0.00 0.00 41 1014.8
20260507212803 70 195 2.0 7.0 0.00 0.00 0.00 42 1015.0
20260507212306 70 192 2.0 5.0 0.00 0.00 0.00 46 1015.2
20260507211803 69 231 2.0 6.0 0.00 0.00 0.00 43 1015.2
20260507211303 69 300 2.0 6.0 0.00 0.00 0.00 47 1015.3
20260507210802 69 286 1.0 5.0 0.00 0.00 0.00 43 1015.3
20260507210302 69 188 1.0 3.0 0.00 0.00 0.00 49 1015.4
20260507205803 69 219 2.0 4.0 0.00 0.00 0.00 46 1015.5
20260507204302 70 238 2.0 6.0 0.00 0.00 0.00 44 1015.6
20260507203804 70 267 2.0 7.0 0.00 0.00 0.00 45 1015.7
20260507203304 70 282 2.0 7.0 0.00 0.00 0.00 41 1015.8
20260507202306 70 298 2.0 5.0 0.00 0.00 0.00 51 1015.8
20260507201804 70 175 2.0 6.0 0.00 0.00 0.00 44 1015.8
20260507201303 70 303 2.0 6.0 0.00 0.00 0.00 42 1015.8
20260507200803 69 271 2.0 8.0 0.00 0.00 0.00 45 1015.9
20260507200303 69 237 3.0 8.0 0.00 0.00 0.00 44 1016.0
20260507195804 69 323 2.0 7.0 0.00 0.00 0.00 43 1016.1
20260507194803 70 355 3.0 7.0 0.00 0.00 0.00 51 1016.3
20260507194302 70 184 3.0 7.0 0.00 0.00 0.00 42 1016.2
20260507193804 69 342 2.0 7.0 0.00 0.00 0.00 43 1016.3
20260507193302 69 202 1.0 4.0 0.00 0.00 0.00 44 1016.3
20260507192803 69 36 1.0 5.0 0.00 0.00 0.00 42 1016.5
20260507192306 69 345 2.0 5.0 0.00 0.00 0.00 45 1016.6
20260507191803 68 109 3.0 7.0 0.00 0.00 0.00 49 1016.7
20260507190804 68 186 3.0 10.0 0.00 0.00 0.00 44 1016.8
20260507190303 68 200 2.0 6.0 0.00 0.00 0.00 42 1016.6
20260507185757 68 218 2.0 5.0 0.00 0.00 0.00 46 1016.9
20260507185247 68 298 2.0 9.0 0.00 0.00 0.00 42 1016.8
20260507184741 67 190 3.0 9.0 0.00 0.00 0.00 43 1016.8
20260507184233 68 246 3.0 7.0 0.00 0.00 0.00 44 1016.9
20260507183734 67 151 3.0 8.0 0.00 0.00 0.00 46 1016.9
20260507183234 67 278 3.0 8.0 0.00 0.00 0.00 44 1017.0
20260507182734 67 126 3.0 6.0 0.00 0.00 0.00 42 1017.0
20260507182234 67 210 3.0 7.0 0.00 0.00 0.00 40 1017.1
20260507181232 67 173 1.0 6.0 0.00 0.00 0.00 43 1017.1
20260507180730 67 322 1.0 4.0 0.00 0.00 0.00 42 1017.2
20260507180230 67 308 2.0 7.0 0.00 0.00 0.00 46 1017.4
20260507175731 67 232 3.0 7.0 0.00 0.00 0.00 41 1017.4
20260507175230 67 215 3.0 7.0 0.00 0.00 0.00 47 1017.5
20260507173231 66 198 1.0 5.0 0.00 0.00 0.00 46 1017.8
20260507172231 65 84 2.0 7.0 0.00 0.00 0.00 39 1018.0
20260507171732 65 207 2.0 7.0 0.00 0.00 0.00 43 1018.1
20260507171239 66 90 2.0 5.0 0.00 0.00 0.00 39 1018.2